{"data":{"norad_id":64953,"epoch":"2026-09-20T13:20:37.319136Z","epoch_age_seconds":119385,"freshness":"FRESH","line1":"1 64953U 25158X   26263.55598749  .00022362  00000+0  69287-3 0  9998","line2":"2 64953  97.2847 121.8491 0001700  88.7889 271.3549 15.33447540 64713","mean_motion":15.3344754,"eccentricity":0.00017,"inclination_deg":97.2847,"raan_deg":121.8491,"arg_perigee_deg":88.7889,"mean_anomaly_deg":271.3549,"bstar":0.00069287,"rev_number":6471,"period_min":93.906049110751,"perigee_km":464.37219289067,"apogee_km":466.69904158053,"semimajor_km":6843.6726172356,"source":"CELESTRAK","updated_at":"2026-09-21T09:00:35.490621Z"}}